ACA50A EDDF-CYHZ

Flight info

Callsign ACA50A
Flight time 6h 37m
Altitude 36000
Route SOBRA2L/18 SOBRA Y180 DIK UN857 TOLVU/N0472F350 DCT RAPOR DCT GIMER DCT ESTOC UT300 ELCOB/N0475F360 UT300 SENLO UN502 JSY DCT LIZAD DCT LULOX/M082F360 DCT DINIM/M082F370 DCT 52N020W 52N030W 52N040W 51N050W DCT ALLRY/N0485F380 DCT CAYLY CABOT5
Aircraft B77W/H-SDE1E2E3FGHIJ2J3J4J5M1RWXY/LB1D1

Departure

Time 2026-05-04 18:54
Airport Frankfurt Main Airport (EDDF)

Arrival

Time 2026-05-05 01:31
Airport Halifax / Stanfield International Airport (CYHZ)
Time Latitude Longitude Altitude Speed Heading
2026-05-04 18:07 50.05066 8.58745 364 ft 0 kts 339°
2026-05-04 18:35 50.05065 8.58746 363 ft 1 kts 339°
2026-05-04 18:35 50.05042 8.58758 366 ft 4 kts 340°
2026-05-04 18:35 50.05021 8.58770 367 ft 3 kts 340°
2026-05-04 18:35 50.04998 8.58786 365 ft 4 kts 320°
2026-05-04 18:36 50.04986 8.58814 363 ft 4 kts 256°
2026-05-04 18:36 50.04994 8.58851 363 ft 4 kts 249°
2026-05-04 18:36 50.05004 8.58891 366 ft 4 kts 249°
2026-05-04 18:36 50.05013 8.58930 363 ft 4 kts 249°
2026-05-04 18:37 50.05022 8.58969 365 ft 4 kts 249°
2026-05-04 18:37 50.05032 8.59008 364 ft 4 kts 249°
2026-05-04 18:37 50.05041 8.59048 366 ft 4 kts 250°
2026-05-04 18:37 50.05044 8.59059 365 ft 0 kts 250°
2026-05-04 18:39 50.05042 8.59050 364 ft 5 kts 250°
2026-05-04 18:39 50.05025 8.58982 369 ft 7 kts 249°
2026-05-04 18:40 50.05006 8.58900 369 ft 9 kts 249°
2026-05-04 18:40 50.04982 8.58804 369 ft 12 kts 249°
2026-05-04 18:40 50.04950 8.58671 369 ft 14 kts 250°
2026-05-04 18:40 50.04918 8.58533 367 ft 14 kts 250°
2026-05-04 18:41 50.04885 8.58396 369 ft 14 kts 249°
2026-05-04 18:41 50.04852 8.58259 366 ft 14 kts 249°
2026-05-04 18:41 50.04819 8.58122 366 ft 14 kts 249°
2026-05-04 18:41 50.04777 8.57991 365 ft 14 kts 228°
2026-05-04 18:42 50.04710 8.57889 366 ft 14 kts 233°
2026-05-04 18:42 50.04673 8.57755 368 ft 14 kts 249°
2026-05-04 18:42 50.04640 8.57618 367 ft 14 kts 250°
2026-05-04 18:42 50.04607 8.57481 368 ft 14 kts 249°
2026-05-04 18:43 50.04574 8.57344 367 ft 14 kts 249°
2026-05-04 18:43 50.04541 8.57205 369 ft 14 kts 249°
2026-05-04 18:43 50.04501 8.57037 367 ft 18 kts 250°
2026-05-04 18:43 50.04458 8.56854 367 ft 18 kts 250°
2026-05-04 18:44 50.04414 8.56670 364 ft 18 kts 250°
2026-05-04 18:44 50.04399 8.56608 368 ft 18 kts 249°
2026-05-04 18:44 50.04326 8.56301 370 ft 18 kts 249°
2026-05-04 18:44 50.04281 8.56117 366 ft 18 kts 249°
2026-05-04 18:45 50.04238 8.55933 367 ft 18 kts 250°
2026-05-04 18:45 50.04194 8.55749 369 ft 18 kts 249°
2026-05-04 18:45 50.04149 8.55565 370 ft 18 kts 249°
2026-05-04 18:45 50.04105 8.55381 367 ft 18 kts 250°
2026-05-04 18:46 50.04061 8.55197 365 ft 18 kts 250°
2026-05-04 18:46 50.04038 8.55099 370 ft 6 kts 250°
2026-05-04 18:46 50.04020 8.55021 368 ft 15 kts 250°
2026-05-04 18:46 50.03971 8.54817 371 ft 21 kts 249°
2026-05-04 18:47 50.03919 8.54603 367 ft 21 kts 249°
2026-05-04 18:47 50.03868 8.54396 370 ft 20 kts 243°
2026-05-04 18:47 50.03797 8.54208 369 ft 20 kts 247°
2026-05-04 18:47 50.03747 8.54000 369 ft 20 kts 249°
2026-05-04 18:48 50.03697 8.53793 368 ft 20 kts 250°
2026-05-04 18:48 50.03647 8.53585 368 ft 20 kts 248°
2026-05-04 18:48 50.03595 8.53379 367 ft 20 kts 250°
2026-05-04 18:48 50.03546 8.53171 369 ft 20 kts 250°
2026-05-04 18:49 50.03502 8.52988 368 ft 17 kts 250°
2026-05-04 18:49 50.03470 8.52859 370 ft 10 kts 245°
2026-05-04 18:49 50.03448 8.52785 370 ft 6 kts 247°
2026-05-04 18:49 50.03444 8.52770 369 ft 0 kts 248°
2026-05-04 18:52 50.03444 8.52769 369 ft 1 kts 248°
2026-05-04 18:52 50.03425 8.52696 370 ft 10 kts 248°
2026-05-04 18:52 50.03395 8.52608 370 ft 9 kts 220°
2026-05-04 18:53 50.03335 8.52595 367 ft 10 kts 179°
2026-05-04 18:53 50.03146 8.52599 367 ft 54 kts 180°
2026-05-04 18:53 50.02507 8.52603 368 ft 127 kts 180°
2026-05-04 18:53 50.01411 8.52610 370 ft 184 kts 179°
2026-05-04 18:54 50.00078 8.52646 802 ft 189 kts 179°
2026-05-04 18:54 49.98761 8.52721 1522 ft 192 kts 178°
2026-05-04 18:54 49.97406 8.52806 2070 ft 202 kts 178°
2026-05-04 18:54 49.95921 8.52904 2350 ft 222 kts 178°
2026-05-04 18:55 49.94352 8.53011 2904 ft 230 kts 178°
2026-05-04 18:55 49.91173 8.53230 4340 ft 229 kts 178°
2026-05-04 18:55 49.89578 8.53341 5040 ft 230 kts 178°
2026-05-04 18:56 49.87983 8.53451 5755 ft 228 kts 179°
2026-05-04 18:56 49.86416 8.53106 6216 ft 236 kts 200°
2026-05-04 18:56 49.84835 8.52107 6470 ft 252 kts 201°
2026-05-04 18:56 49.83158 8.51129 7042 ft 261 kts 200°
2026-05-04 18:57 49.81439 8.50156 7740 ft 264 kts 200°
2026-05-04 18:57 49.79706 8.49180 8492 ft 266 kts 200°
2026-05-04 18:57 49.77982 8.48126 9193 ft 266 kts 210°
2026-05-04 18:57 49.76626 8.46177 9772 ft 273 kts 238°
2026-05-04 18:58 49.75965 8.43404 10355 ft 283 kts 258°
2026-05-04 18:58 49.76023 8.40249 10529 ft 308 kts 280°
2026-05-04 18:58 49.76591 8.36927 10707 ft 331 kts 282°
2026-05-04 18:58 49.77208 8.33365 10932 ft 353 kts 282°
2026-05-04 18:59 49.77832 8.29627 11502 ft 364 kts 282°
2026-05-04 18:59 49.78449 8.25836 12256 ft 371 kts 281°
2026-05-04 18:59 49.79076 8.21943 13189 ft 375 kts 281°
2026-05-04 18:59 49.79706 8.18006 14079 ft 379 kts 281°
2026-05-04 19:00 49.80342 8.14022 14904 ft 383 kts 281°
2026-05-04 19:00 49.80984 8.09995 15712 ft 388 kts 281°
2026-05-04 19:00 49.81632 8.05918 16536 ft 392 kts 281°
2026-05-04 19:00 49.82286 8.01792 17316 ft 397 kts 281°
2026-05-04 19:01 49.82947 7.97616 18114 ft 402 kts 281°
2026-05-04 19:01 49.83615 7.93391 18813 ft 406 kts 281°
2026-05-04 19:01 49.84289 7.89119 19522 ft 410 kts 281°
2026-05-04 19:01 49.84970 7.84802 20222 ft 414 kts 281°
2026-05-04 19:02 49.85655 7.80445 20912 ft 418 kts 280°
2026-05-04 19:02 49.86345 7.76039 21583 ft 422 kts 280°
2026-05-04 19:02 49.87046 7.71589 22272 ft 426 kts 281°
2026-05-04 19:02 49.87747 7.67099 22943 ft 430 kts 280°
2026-05-04 19:03 49.88445 7.62570 23576 ft 434 kts 280°
2026-05-04 19:03 49.89146 7.57991 24094 ft 438 kts 280°
2026-05-04 19:03 49.89842 7.53434 24625 ft 441 kts 280°
2026-05-04 19:03 49.90550 7.48791 25160 ft 444 kts 280°
2026-05-04 19:04 49.91262 7.44116 25688 ft 447 kts 280°
2026-05-04 19:04 49.91980 7.39390 26193 ft 450 kts 279°
2026-05-04 19:04 49.92699 7.34642 26689 ft 454 kts 279°
2026-05-04 19:04 49.93422 7.29855 27168 ft 457 kts 279°
2026-05-04 19:05 49.94149 7.25028 27582 ft 462 kts 279°
2026-05-04 19:05 49.94881 7.20147 27972 ft 467 kts 279°
2026-05-04 19:05 49.95618 7.15225 28433 ft 469 kts 279°
2026-05-04 19:05 49.96355 7.10270 28870 ft 471 kts 278°
2026-05-04 19:06 49.96817 7.05242 29231 ft 470 kts 268°
2026-05-04 19:06 49.96702 7.00219 29592 ft 467 kts 259°
2026-05-04 19:06 49.96148 6.95254 30019 ft 464 kts 252°
2026-05-04 19:06 49.95212 6.90480 30511 ft 459 kts 249°
2026-05-04 19:07 49.94244 6.85794 31143 ft 453 kts 249°
2026-05-04 19:07 49.93315 6.81220 31871 ft 446 kts 248°
2026-05-04 19:07 49.92405 6.76681 32633 ft 438 kts 248°
2026-05-04 19:07 49.91506 6.72177 33141 ft 435 kts 249°
2026-05-04 19:08 49.90610 6.67693 33508 ft 435 kts 249°
2026-05-04 19:08 49.89714 6.63205 33878 ft 435 kts 249°
2026-05-04 19:08 49.88818 6.58728 34236 ft 434 kts 249°
2026-05-04 19:08 49.87923 6.54261 34498 ft 435 kts 249°
2026-05-04 19:09 49.87022 6.49776 34737 ft 436 kts 249°
2026-05-04 19:09 49.86118 6.45285 34960 ft 437 kts 249°
2026-05-04 19:09 49.85210 6.40786 35214 ft 438 kts 249°
2026-05-04 19:09 49.84299 6.36279 35472 ft 438 kts 249°
2026-05-04 19:10 49.83383 6.31762 35654 ft 441 kts 249°
2026-05-04 19:10 49.82459 6.27219 35848 ft 443 kts 249°
2026-05-04 19:10 49.80659 6.18385 35948 ft 447 kts 249°
2026-05-04 19:11 49.78791 6.09255 35958 ft 442 kts 249°
2026-05-04 19:11 49.76932 6.00211 35965 ft 440 kts 249°
2026-05-04 19:12 49.74140 5.86713 35983 ft 439 kts 249°
2026-05-04 19:13 49.72102 5.77741 35977 ft 445 kts 247°
2026-05-04 19:13 49.69952 5.68736 35972 ft 447 kts 247°
2026-05-04 19:14 49.67813 5.59698 35961 ft 448 kts 247°
2026-05-04 19:14 49.65686 5.50663 35967 ft 448 kts 247°
2026-05-04 19:15 49.63569 5.41703 35960 ft 447 kts 247°
2026-05-04 19:15 49.61484 5.32674 35953 ft 447 kts 249°
2026-05-04 19:16 49.59579 5.23563 35964 ft 446 kts 249°
2026-05-04 19:16 49.57840 5.14386 35957 ft 446 kts 252°
2026-05-04 19:17 49.56229 5.05168 35953 ft 445 kts 252°
2026-05-04 19:17 49.54614 4.95965 35956 ft 445 kts 252°
2026-05-04 19:18 49.52977 4.86762 35964 ft 446 kts 252°
2026-05-04 19:18 49.51328 4.77563 35958 ft 446 kts 251°
2026-05-04 19:19 49.49670 4.68365 35955 ft 446 kts 251°
2026-05-04 19:19 49.48465 4.59044 35945 ft 450 kts 261°
2026-05-04 19:20 49.47894 4.49454 35946 ft 450 kts 261°
2026-05-04 19:20 49.47290 4.39864 35961 ft 451 kts 261°
2026-05-04 19:21 49.46658 4.30259 35955 ft 451 kts 261°
2026-05-04 19:21 49.46009 4.20659 35956 ft 451 kts 261°
2026-05-04 19:22 49.45351 4.11050 35939 ft 452 kts 261°
2026-05-04 19:22 49.44687 4.01457 35946 ft 451 kts 261°
2026-05-04 19:23 49.44015 3.91857 35941 ft 451 kts 261°
2026-05-04 19:23 49.43335 3.82270 35941 ft 451 kts 261°
2026-05-04 19:24 49.42648 3.72689 35941 ft 451 kts 261°
2026-05-04 19:24 49.41954 3.63131 35938 ft 451 kts 261°
2026-05-04 19:25 49.41251 3.53562 35948 ft 451 kts 261°
2026-05-04 19:25 49.40542 3.44009 35937 ft 450 kts 261°
2026-05-04 19:26 49.39824 3.34463 35938 ft 450 kts 261°
2026-05-04 19:26 49.39099 3.24919 35942 ft 450 kts 261°
2026-05-04 19:27 49.38367 3.15392 35935 ft 449 kts 261°
2026-05-04 19:27 49.37628 3.05871 35943 ft 449 kts 261°
2026-05-04 19:28 49.36885 2.96413 35940 ft 449 kts 261°
2026-05-04 19:28 49.36130 2.86903 35939 ft 449 kts 260°
2026-05-04 19:29 49.35367 2.77380 35940 ft 449 kts 260°
2026-05-04 19:29 49.34595 2.67859 35943 ft 450 kts 260°
2026-05-04 19:30 49.33816 2.58344 35949 ft 450 kts 260°
2026-05-04 19:30 49.33027 2.48810 35953 ft 451 kts 260°
2026-05-04 19:31 49.32230 2.39273 35954 ft 451 kts 260°
2026-05-04 19:31 49.31424 2.29725 35960 ft 451 kts 260°
2026-05-04 19:32 49.30610 2.20183 35976 ft 452 kts 260°
2026-05-04 19:32 49.29787 2.10630 35968 ft 452 kts 260°
2026-05-04 19:33 49.28955 2.01065 35964 ft 453 kts 260°
2026-05-04 19:33 49.28115 1.91493 35961 ft 453 kts 259°
2026-05-04 19:34 49.27411 1.83547 35950 ft 453 kts 259°
2026-05-04 19:34 49.26556 1.73993 35962 ft 453 kts 259°
2026-05-04 19:35 49.25694 1.64434 35950 ft 453 kts 259°
2026-05-04 19:35 49.24822 1.54871 35960 ft 453 kts 259°
2026-05-04 19:36 49.23943 1.45318 35962 ft 453 kts 259°
2026-05-04 19:36 49.23063 1.35829 35960 ft 453 kts 259°
2026-05-04 19:37 49.22167 1.26277 35976 ft 454 kts 259°
2026-05-04 19:37 49.21263 1.16707 35968 ft 455 kts 259°
2026-05-04 19:38 49.20349 1.07126 35964 ft 455 kts 259°
2026-05-04 19:38 49.19427 0.97550 35970 ft 455 kts 259°
2026-05-04 19:39 49.18496 0.87965 35981 ft 455 kts 258°
2026-05-04 19:39 49.17558 0.78392 35967 ft 456 kts 258°
2026-05-04 19:40 49.16610 0.68805 35965 ft 456 kts 258°
2026-05-04 19:40 49.15655 0.59227 35962 ft 456 kts 258°
2026-05-04 19:41 49.14693 0.49659 35966 ft 456 kts 258°
2026-05-04 19:41 49.13721 0.40088 35958 ft 457 kts 258°
2026-05-04 19:42 49.12746 0.30558 35983 ft 458 kts 258°
2026-05-04 19:42 49.11753 0.20930 35970 ft 459 kts 258°
2026-05-04 19:43 49.10749 0.11282 35977 ft 461 kts 258°
2026-05-04 19:43 49.09735 0.01617 35975 ft 462 kts 258°
2026-05-04 19:44 49.08711 -0.08069 35989 ft 463 kts 257°
2026-05-04 19:44 49.07677 -0.17767 35988 ft 464 kts 257°
2026-05-04 19:45 49.06903 -0.27561 35989 ft 468 kts 265°
2026-05-04 19:45 49.07063 -0.37523 35999 ft 470 kts 268°
2026-05-04 19:46 49.07288 -0.47481 35998 ft 470 kts 268°
2026-05-04 19:46 49.07473 -0.57441 35993 ft 470 kts 268°
2026-05-04 19:47 49.07631 -0.67397 35995 ft 469 kts 268°
2026-05-04 19:47 49.07779 -0.77351 35993 ft 469 kts 268°
2026-05-04 19:48 49.07920 -0.87296 36001 ft 469 kts 268°
2026-05-04 19:48 49.08051 -0.97178 36001 ft 470 kts 268°
2026-05-04 19:49 49.08178 -1.07153 35990 ft 471 kts 268°
2026-05-04 19:49 49.08421 -1.17174 35995 ft 474 kts 273°
2026-05-04 19:50 49.09704 -1.27081 36005 ft 478 kts 281°
2026-05-04 19:50 49.11351 -1.36870 36007 ft 479 kts 281°
2026-05-04 19:51 49.12980 -1.46758 35991 ft 480 kts 281°
2026-05-04 19:51 49.14573 -1.56676 35989 ft 481 kts 281°
2026-05-04 19:52 49.16149 -1.66609 35991 ft 481 kts 281°
2026-05-04 19:52 49.17718 -1.76542 35992 ft 481 kts 280°
2026-05-04 19:53 49.19280 -1.86488 35997 ft 481 kts 281°
2026-05-04 19:53 49.20836 -1.96451 35994 ft 482 kts 281°
2026-05-04 19:54 49.22387 -2.06406 35995 ft 482 kts 281°
2026-05-04 19:54 49.24068 -2.16346 35996 ft 483 kts 282°
2026-05-04 19:55 49.25799 -2.26271 36004 ft 483 kts 283°
2026-05-04 19:55 49.27499 -2.36151 36000 ft 483 kts 282°
2026-05-04 19:56 49.29186 -2.46101 35998 ft 482 kts 282°
2026-05-04 19:56 49.30859 -2.56063 35996 ft 482 kts 282°
2026-05-04 19:57 49.32522 -2.66017 35995 ft 482 kts 282°
2026-05-04 19:57 49.34177 -2.75980 35999 ft 482 kts 283°
2026-05-04 19:58 49.35822 -2.85937 36013 ft 482 kts 282°
2026-05-04 19:58 49.37459 -2.95907 36013 ft 482 kts 282°
2026-05-04 19:59 49.39088 -3.05882 36016 ft 481 kts 282°
2026-05-04 19:59 49.40696 -3.15794 36020 ft 481 kts 283°
2026-05-04 20:00 49.42306 -3.25771 36015 ft 481 kts 283°
2026-05-04 20:00 49.43910 -3.35772 36020 ft 481 kts 282°
2026-05-04 20:01 49.45502 -3.45760 36022 ft 481 kts 282°
2026-05-04 20:01 49.47088 -3.55772 36013 ft 482 kts 282°
2026-05-04 20:02 49.48666 -3.65793 36019 ft 482 kts 283°
2026-05-04 20:02 49.50235 -3.75816 36021 ft 482 kts 283°
2026-05-04 20:03 49.51797 -3.85859 36022 ft 483 kts 283°
2026-05-04 20:03 49.53365 -3.95901 36021 ft 483 kts 284°
2026-05-04 20:04 49.55178 -4.05863 36028 ft 483 kts 286°
2026-05-04 20:04 49.57064 -4.15730 36019 ft 484 kts 286°
2026-05-04 20:05 49.58929 -4.25694 36023 ft 484 kts 285°
2026-05-04 20:05 49.60757 -4.35688 36022 ft 484 kts 285°
2026-05-04 20:06 49.62562 -4.45678 36022 ft 484 kts 285°
2026-05-04 20:06 49.64360 -4.55685 36026 ft 484 kts 285°
2026-05-04 20:07 49.66151 -4.65698 36017 ft 484 kts 285°
2026-05-04 20:07 49.67932 -4.75706 36022 ft 484 kts 285°
2026-05-04 20:08 49.69707 -4.85731 36023 ft 483 kts 285°
2026-05-04 20:08 49.71470 -4.95751 36022 ft 483 kts 285°
2026-05-04 20:09 49.73227 -5.05785 36022 ft 483 kts 285°
2026-05-04 20:09 49.74973 -5.15822 36023 ft 483 kts 285°
2026-05-04 20:10 49.76697 -5.25784 36025 ft 483 kts 284°
2026-05-04 20:10 49.78426 -5.35837 36024 ft 483 kts 284°
2026-05-04 20:11 49.80146 -5.45888 36029 ft 483 kts 285°
2026-05-04 20:11 49.81857 -5.55949 36032 ft 483 kts 284°
2026-05-04 20:12 49.83563 -5.66039 36029 ft 484 kts 284°
2026-05-04 20:12 49.85258 -5.76125 36034 ft 484 kts 284°
2026-05-04 20:13 49.86948 -5.86235 36036 ft 485 kts 284°
2026-05-04 20:13 49.88631 -5.96369 36035 ft 485 kts 284°
2026-05-04 20:14 49.90306 -6.06512 36038 ft 486 kts 284°
2026-05-04 20:14 49.91965 -6.16615 36038 ft 486 kts 284°
2026-05-04 20:15 49.93626 -6.26793 36042 ft 487 kts 284°
2026-05-04 20:15 49.95279 -6.36985 36041 ft 487 kts 284°
2026-05-04 20:16 49.96923 -6.47190 36048 ft 487 kts 284°
2026-05-04 20:16 49.98559 -6.57397 36045 ft 487 kts 284°
2026-05-04 20:17 50.00187 -6.67624 36051 ft 487 kts 284°
2026-05-04 20:17 50.01804 -6.77843 36048 ft 486 kts 284°
2026-05-04 20:18 50.03410 -6.88059 36049 ft 486 kts 284°
2026-05-04 20:18 50.04997 -6.98212 36054 ft 486 kts 284°
2026-05-04 20:19 50.06586 -7.08439 36053 ft 486 kts 284°
2026-05-04 20:19 50.08166 -7.18681 36054 ft 486 kts 284°
2026-05-04 20:20 50.09737 -7.28924 36056 ft 486 kts 284°
2026-05-04 20:20 50.11300 -7.39192 36059 ft 486 kts 284°
2026-05-04 20:21 50.12854 -7.49453 36061 ft 487 kts 284°
2026-05-04 20:21 50.15156 -7.64785 36065 ft 487 kts 284°
2026-05-04 20:22 50.16690 -7.75086 36057 ft 487 kts 284°
2026-05-04 20:22 50.17958 -7.83652 36059 ft 487 kts 285°
2026-05-04 20:23 50.19475 -7.93961 36074 ft 488 kts 285°
2026-05-04 20:23 50.20985 -8.04296 36074 ft 488 kts 285°
2026-05-04 20:24 50.22488 -8.14642 36078 ft 489 kts 284°
2026-05-04 20:24 50.23982 -8.25005 36079 ft 489 kts 284°
2026-05-04 20:25 50.25469 -8.35385 36080 ft 489 kts 285°
2026-05-04 20:25 50.26946 -8.45770 36085 ft 489 kts 285°
2026-05-04 20:26 50.28404 -8.56094 36091 ft 489 kts 285°
2026-05-04 20:26 50.29863 -8.66497 36093 ft 489 kts 285°
2026-05-04 20:27 50.31311 -8.76887 36092 ft 489 kts 285°
2026-05-04 20:27 50.32745 -8.87275 36089 ft 488 kts 285°
2026-05-04 20:28 50.34172 -8.97650 36093 ft 487 kts 285°
2026-05-04 20:28 50.35589 -9.08028 36106 ft 487 kts 285°
2026-05-04 20:29 50.36993 -9.18392 36103 ft 486 kts 285°
2026-05-04 20:29 50.38387 -9.28767 36089 ft 486 kts 285°
2026-05-04 20:30 50.39769 -9.39123 36106 ft 485 kts 285°
2026-05-04 20:30 50.41141 -9.49478 36111 ft 485 kts 285°
2026-05-04 20:31 50.42495 -9.59776 36112 ft 485 kts 285°
2026-05-04 20:31 50.43848 -9.70129 36118 ft 484 kts 285°
2026-05-04 20:32 50.45191 -9.80489 36114 ft 484 kts 285°
2026-05-04 20:32 50.46525 -9.90853 36114 ft 484 kts 285°
2026-05-04 20:33 50.47848 -10.01220 36126 ft 484 kts 285°
2026-05-04 20:33 50.49162 -10.11581 36136 ft 483 kts 285°
2026-05-04 20:34 50.50464 -10.21932 36128 ft 483 kts 285°
2026-05-04 20:34 50.51757 -10.32289 36134 ft 482 kts 285°
2026-05-04 20:35 50.53030 -10.42564 36137 ft 482 kts 284°
2026-05-04 20:35 50.54304 -10.52925 36149 ft 481 kts 284°
2026-05-04 20:36 50.55564 -10.63256 36145 ft 481 kts 284°
2026-05-04 20:36 50.56815 -10.73588 36147 ft 481 kts 284°
2026-05-04 20:37 50.58055 -10.83913 36141 ft 479 kts 284°
2026-05-04 20:37 50.59275 -10.94154 36156 ft 479 kts 284°
2026-05-04 20:38 50.60491 -11.04440 36162 ft 478 kts 284°
2026-05-04 20:38 50.61699 -11.14743 36169 ft 478 kts 284°
2026-05-04 20:39 50.62897 -11.25034 36162 ft 478 kts 284°
2026-05-04 20:39 50.64083 -11.35315 36171 ft 477 kts 284°
2026-05-04 20:40 50.65260 -11.45597 36177 ft 477 kts 283°
2026-05-04 20:40 50.66427 -11.55878 36177 ft 477 kts 283°
2026-05-04 20:41 50.67585 -11.66167 36182 ft 477 kts 283°
2026-05-04 20:41 50.68729 -11.76411 36169 ft 477 kts 283°
2026-05-04 20:42 50.69868 -11.86702 36182 ft 476 kts 283°
2026-05-04 20:42 50.70999 -11.97000 36188 ft 476 kts 283°
2026-05-04 20:43 50.72119 -12.07287 36191 ft 475 kts 282°
2026-05-04 20:43 50.73229 -12.17570 36192 ft 475 kts 282°
2026-05-04 20:44 50.74328 -12.27847 36202 ft 474 kts 282°
2026-05-04 20:44 50.75416 -12.38110 36191 ft 473 kts 282°
2026-05-04 20:45 50.76488 -12.48309 36188 ft 472 kts 282°
2026-05-04 20:45 50.77553 -12.58528 36207 ft 471 kts 282°
2026-05-04 20:46 50.78607 -12.68730 36214 ft 470 kts 282°
2026-05-04 20:46 50.79652 -12.78935 36201 ft 470 kts 282°
2026-05-04 20:47 50.80685 -12.89118 36210 ft 469 kts 282°
2026-05-04 20:47 50.81708 -12.99287 36210 ft 468 kts 281°
2026-05-04 20:48 50.82720 -13.09453 36220 ft 468 kts 281°
2026-05-04 20:48 50.83724 -13.19617 36215 ft 467 kts 281°
2026-05-04 20:49 50.84715 -13.29747 36213 ft 465 kts 281°
2026-05-04 20:49 50.85694 -13.39854 36219 ft 464 kts 281°
2026-05-04 20:50 50.86661 -13.49932 36222 ft 463 kts 281°
2026-05-04 20:50 50.87619 -13.60004 36222 ft 462 kts 281°
2026-05-04 20:51 50.88574 -13.70129 36531 ft 466 kts 281°
2026-05-04 20:51 50.89048 -13.75197 36854 ft 465 kts 280°
2026-05-04 20:51 50.89518 -13.80250 37224 ft 462 kts 280°
2026-05-04 20:52 50.90455 -13.90389 37236 ft 466 kts 280°
2026-05-04 20:52 50.91374 -14.00440 37225 ft 461 kts 280°
2026-05-04 20:53 50.92288 -14.10534 37230 ft 459 kts 280°
2026-05-04 20:53 50.93179 -14.20463 37233 ft 458 kts 280°
2026-05-04 20:54 50.94068 -14.30461 37242 ft 457 kts 279°
2026-05-04 20:54 50.94945 -14.40439 37241 ft 456 kts 279°
2026-05-04 20:55 50.95813 -14.50404 37239 ft 456 kts 279°
2026-05-04 20:55 50.96672 -14.60375 37240 ft 456 kts 279°
2026-05-04 20:56 50.97523 -14.70352 37242 ft 456 kts 279°
2026-05-04 20:56 50.98365 -14.80331 37245 ft 457 kts 279°
2026-05-04 20:57 50.99201 -14.90322 37251 ft 457 kts 279°
2026-05-04 20:57 51.00182 -15.00215 37245 ft 456 kts 285°
2026-05-04 20:58 51.02123 -15.09779 37254 ft 455 kts 291°
2026-05-04 20:58 51.04288 -15.19221 37256 ft 455 kts 291°
2026-05-04 20:59 51.06433 -15.28696 37251 ft 455 kts 290°
2026-05-04 20:59 51.08552 -15.38183 37258 ft 455 kts 290°
2026-05-04 21:00 51.10653 -15.47674 37253 ft 454 kts 290°
2026-05-04 21:00 51.12744 -15.57164 37262 ft 454 kts 290°
2026-05-04 21:01 51.14813 -15.66592 37262 ft 454 kts 290°
2026-05-04 21:01 51.16887 -15.76087 37262 ft 454 kts 290°
2026-05-04 21:02 51.18955 -15.85597 37271 ft 454 kts 290°
2026-05-04 21:02 51.21014 -15.95112 37261 ft 454 kts 290°
2026-05-04 21:03 51.23069 -16.04652 37266 ft 454 kts 290°
2026-05-04 21:03 51.25114 -16.14188 37263 ft 454 kts 290°
2026-05-04 21:04 51.27141 -16.23685 37273 ft 454 kts 289°
2026-05-04 21:04 51.29172 -16.33246 37277 ft 454 kts 289°
2026-05-04 21:05 51.31194 -16.42813 37275 ft 454 kts 289°
2026-05-04 21:05 51.33210 -16.52396 37274 ft 454 kts 289°
2026-05-04 21:06 51.35215 -16.61967 37274 ft 454 kts 289°
2026-05-04 21:06 51.37211 -16.71544 37278 ft 453 kts 289°
2026-05-04 21:07 51.39197 -16.81121 37273 ft 453 kts 289°
2026-05-04 21:07 51.41174 -16.90696 37279 ft 452 kts 289°
2026-05-04 21:08 51.43137 -17.00253 37281 ft 451 kts 289°
2026-05-04 21:08 51.44763 -17.08202 37281 ft 451 kts 289°
2026-05-04 21:09 51.47030 -17.19337 37298 ft 454 kts 289°
2026-05-04 21:09 51.48980 -17.28968 37285 ft 453 kts 289°
2026-05-04 21:10 51.50603 -17.37026 37305 ft 452 kts 289°
2026-05-04 21:10 51.52514 -17.46548 37282 ft 450 kts 289°
2026-05-04 21:11 51.54429 -17.56138 37304 ft 450 kts 289°
2026-05-04 21:11 51.56346 -17.65781 37311 ft 455 kts 289°
2026-05-04 21:12 51.58270 -17.75513 37312 ft 458 kts 288°
2026-05-04 21:12 51.60188 -17.85266 37291 ft 456 kts 288°
2026-05-04 21:13 51.62079 -17.94929 37294 ft 451 kts 288°
2026-05-04 21:13 51.63948 -18.04528 37299 ft 449 kts 288°
2026-05-04 21:14 51.65795 -18.14055 37320 ft 449 kts 288°
2026-05-04 21:14 51.67646 -18.23660 37313 ft 449 kts 288°
2026-05-04 21:15 51.69496 -18.33304 37325 ft 451 kts 288°
2026-05-04 21:15 51.71345 -18.42988 37316 ft 452 kts 288°
2026-05-04 21:16 51.73190 -18.52708 37320 ft 453 kts 288°
2026-05-04 21:16 51.75031 -18.62450 37324 ft 454 kts 288°
2026-05-04 21:17 51.76867 -18.72222 37328 ft 454 kts 288°
2026-05-04 21:17 51.78692 -18.81987 37323 ft 454 kts 288°
2026-05-04 21:18 51.80495 -18.91688 37331 ft 454 kts 288°
2026-05-04 21:18 51.82303 -19.01457 37333 ft 453 kts 288°
2026-05-04 21:19 51.84101 -19.11228 37336 ft 453 kts 288°
2026-05-04 21:19 51.85889 -19.20998 37338 ft 453 kts 288°
2026-05-04 21:20 51.87667 -19.30769 37347 ft 452 kts 288°
2026-05-04 21:20 51.89436 -19.40536 37338 ft 452 kts 288°
2026-05-04 21:21 51.91197 -19.50312 37344 ft 452 kts 288°
2026-05-04 21:21 51.92948 -19.60086 37346 ft 452 kts 288°
2026-05-04 21:22 51.94691 -19.69867 37348 ft 452 kts 288°
2026-05-04 21:22 51.96427 -19.79664 37351 ft 452 kts 287°
2026-05-04 21:23 51.98146 -19.89409 37351 ft 452 kts 287°
2026-05-04 21:23 51.99773 -19.99264 37343 ft 453 kts 283°
2026-05-04 21:24 52.00470 -20.09437 37358 ft 454 kts 275°
2026-05-04 21:24 52.00849 -20.19669 37360 ft 455 kts 275°
2026-05-04 21:25 52.01233 -20.29918 37354 ft 455 kts 275°
2026-05-04 21:25 52.01628 -20.40171 37358 ft 454 kts 275°
2026-05-04 21:26 52.02023 -20.50401 37358 ft 454 kts 275°
2026-05-04 21:26 52.02410 -20.60641 37366 ft 454 kts 275°
2026-05-04 21:27 52.02785 -20.70817 37363 ft 454 kts 275°
2026-05-04 21:27 52.03154 -20.81053 37364 ft 454 kts 275°
2026-05-04 21:28 52.03513 -20.91283 37366 ft 454 kts 275°
2026-05-04 21:28 52.03863 -21.01521 37366 ft 454 kts 275°
2026-05-04 21:29 52.04205 -21.11761 37369 ft 454 kts 275°
2026-05-04 21:29 52.04537 -21.21995 37372 ft 453 kts 275°
2026-05-04 21:30 52.04860 -21.32225 37384 ft 453 kts 274°
2026-05-04 21:30 52.05175 -21.42459 37376 ft 453 kts 274°
2026-05-04 21:31 52.05630 -21.57811 37365 ft 453 kts 274°
2026-05-04 21:32 52.05921 -21.67974 37382 ft 453 kts 274°
2026-05-04 21:32 52.06204 -21.78205 37387 ft 453 kts 274°
2026-05-04 21:33 52.06478 -21.88433 37384 ft 453 kts 274°
2026-05-04 21:33 52.06744 -21.98669 37386 ft 453 kts 274°
2026-05-04 21:34 52.07001 -22.08905 37389 ft 453 kts 274°
2026-05-04 21:34 52.07249 -22.19145 37389 ft 453 kts 274°
2026-05-04 21:35 52.07489 -22.29402 37394 ft 453 kts 273°
2026-05-04 21:35 52.07719 -22.39643 37394 ft 453 kts 273°
2026-05-04 21:36 52.07940 -22.49885 37403 ft 454 kts 273°
2026-05-04 21:36 52.08152 -22.60068 37398 ft 454 kts 273°
2026-05-04 21:37 52.08355 -22.70321 37396 ft 453 kts 273°
2026-05-04 21:37 52.08550 -22.80567 37399 ft 453 kts 273°
2026-05-04 21:38 52.08736 -22.90823 37403 ft 453 kts 272°
2026-05-04 21:38 52.08913 -23.01069 37403 ft 453 kts 272°
2026-05-04 21:39 52.09081 -23.11325 37407 ft 453 kts 272°
2026-05-04 21:39 52.09241 -23.21572 37403 ft 453 kts 272°
2026-05-04 21:40 52.09391 -23.31822 37408 ft 453 kts 272°
2026-05-04 21:40 52.09533 -23.42071 37412 ft 453 kts 272°
2026-05-04 21:41 52.09664 -23.52240 37412 ft 453 kts 272°
2026-05-04 21:41 52.09788 -23.62496 37418 ft 453 kts 272°
2026-05-04 21:42 52.09903 -23.72741 37417 ft 453 kts 272°
2026-05-04 21:42 52.10009 -23.82981 37416 ft 452 kts 272°
2026-05-04 21:43 52.10106 -23.93208 37417 ft 452 kts 271°
2026-05-04 21:43 52.10193 -24.03421 37418 ft 452 kts 271°
2026-05-04 21:44 52.10273 -24.13655 37418 ft 452 kts 271°
2026-05-04 21:44 52.10342 -24.23803 37418 ft 452 kts 271°
2026-05-04 21:45 52.10404 -24.34029 37420 ft 451 kts 271°
2026-05-04 21:45 52.10457 -24.44243 37421 ft 452 kts 271°
2026-05-04 21:46 52.10500 -24.54450 37426 ft 452 kts 271°
2026-05-04 21:46 52.10535 -24.64686 37426 ft 452 kts 271°
2026-05-04 21:47 52.10562 -24.74909 37424 ft 452 kts 271°
2026-05-04 21:47 52.10579 -24.85080 37418 ft 452 kts 271°
2026-05-04 21:48 52.10587 -24.95314 37427 ft 452 kts 271°
2026-05-04 21:48 52.10587 -25.05545 37426 ft 452 kts 271°
2026-05-04 21:49 52.10578 -25.15778 37430 ft 453 kts 271°
2026-05-04 21:49 52.10560 -25.26019 37426 ft 453 kts 270°
2026-05-04 21:50 52.10533 -25.36258 37427 ft 453 kts 270°
2026-05-04 21:50 52.10498 -25.46510 37424 ft 453 kts 270°
2026-05-04 21:51 52.10452 -25.56751 37429 ft 452 kts 270°
2026-05-04 21:51 52.10399 -25.66932 37428 ft 452 kts 270°
2026-05-04 21:52 52.10337 -25.77168 37426 ft 452 kts 270°
2026-05-04 21:52 52.10265 -25.87403 37426 ft 452 kts 270°
2026-05-04 21:53 52.10185 -25.97635 37438 ft 452 kts 270°
2026-05-04 21:53 52.10096 -26.07876 37427 ft 452 kts 270°
2026-05-04 21:54 52.09999 -26.18112 37426 ft 452 kts 270°
2026-05-04 21:54 52.09893 -26.28270 37426 ft 452 kts 270°
2026-05-04 21:55 52.09777 -26.38506 37429 ft 452 kts 270°
2026-05-04 21:55 52.09653 -26.48727 37425 ft 452 kts 270°
2026-05-04 21:56 52.09520 -26.58952 37430 ft 452 kts 270°
2026-05-04 21:56 52.09403 -26.67449 37426 ft 452 kts 269°
2026-05-04 21:57 52.09253 -26.77665 37429 ft 452 kts 269°
2026-05-04 21:57 52.09096 -26.87881 37432 ft 452 kts 269°
2026-05-04 21:58 52.08928 -26.98109 37428 ft 452 kts 269°
2026-05-04 21:58 52.08753 -27.08324 37428 ft 452 kts 269°
2026-05-04 21:59 52.08568 -27.18549 37432 ft 452 kts 269°
2026-05-04 21:59 52.08374 -27.28779 37428 ft 452 kts 269°
2026-05-04 22:00 52.08173 -27.38933 37429 ft 452 kts 269°
2026-05-04 22:00 52.07962 -27.49157 37435 ft 452 kts 269°
2026-05-04 22:01 52.07742 -27.59389 37433 ft 452 kts 269°
2026-05-04 22:01 52.07513 -27.69611 37438 ft 452 kts 269°
2026-05-04 22:02 52.07275 -27.79837 37434 ft 452 kts 269°
2026-05-04 22:02 52.07029 -27.90057 37434 ft 453 kts 269°
2026-05-04 22:03 52.06773 -28.00277 37437 ft 453 kts 269°
2026-05-04 22:03 52.06509 -28.10501 37427 ft 453 kts 269°
2026-05-04 22:04 52.06237 -28.20649 37439 ft 453 kts 269°
2026-05-04 22:04 52.05955 -28.30873 37441 ft 453 kts 269°
2026-05-04 22:05 52.05664 -28.41105 37436 ft 454 kts 269°
2026-05-04 22:05 52.05363 -28.51361 37436 ft 454 kts 269°
2026-05-04 22:06 52.05054 -28.61603 37423 ft 454 kts 269°
2026-05-04 22:06 52.04735 -28.71855 37438 ft 454 kts 269°
2026-05-04 22:07 52.04407 -28.82129 37439 ft 455 kts 269°
2026-05-04 22:07 52.04072 -28.92333 37437 ft 455 kts 269°
2026-05-04 22:08 52.03726 -29.02607 37437 ft 455 kts 269°
2026-05-04 22:08 52.03371 -29.12867 37439 ft 455 kts 269°
2026-05-04 22:09 52.03007 -29.23134 37428 ft 455 kts 269°
2026-05-04 22:09 52.02635 -29.33383 37435 ft 455 kts 269°
2026-05-04 22:10 52.02254 -29.43638 37441 ft 455 kts 269°
2026-05-04 22:10 52.01866 -29.53839 37437 ft 456 kts 269°
2026-05-04 22:11 52.01466 -29.64119 37434 ft 456 kts 269°
2026-05-04 22:11 52.01057 -29.74390 37424 ft 456 kts 269°
2026-05-04 22:12 52.00640 -29.84664 37433 ft 456 kts 269°
2026-05-04 22:12 52.00214 -29.94942 37435 ft 456 kts 269°
2026-05-04 22:13 52.00145 -30.05188 37435 ft 453 kts 276°
2026-05-04 22:13 52.00594 -30.15388 37432 ft 453 kts 276°
2026-05-04 22:14 52.01041 -30.25593 37406 ft 453 kts 276°
2026-05-04 22:14 52.01460 -30.35785 37433 ft 452 kts 276°
2026-05-04 22:15 52.01859 -30.45986 37420 ft 452 kts 276°
2026-05-04 22:15 52.02246 -30.56154 37431 ft 451 kts 276°
2026-05-04 22:16 52.02621 -30.66262 37432 ft 451 kts 276°
2026-05-04 22:16 52.02990 -30.76423 37430 ft 451 kts 276°
2026-05-04 22:17 52.03351 -30.86587 37408 ft 450 kts 276°
2026-05-04 22:17 52.03701 -30.96720 37418 ft 448 kts 276°
2026-05-04 22:18 52.04042 -31.06821 37421 ft 446 kts 276°
2026-05-04 22:18 52.04373 -31.16874 37424 ft 445 kts 276°
2026-05-04 22:19 52.04694 -31.26903 37431 ft 444 kts 276°
2026-05-04 22:19 52.05008 -31.36935 37422 ft 445 kts 276°
2026-05-04 22:20 52.05312 -31.46941 37421 ft 446 kts 276°
2026-05-04 22:20 52.05610 -31.57028 37421 ft 447 kts 276°
2026-05-04 22:21 52.05899 -31.67142 37418 ft 449 kts 275°
2026-05-04 22:21 52.06181 -31.77280 37419 ft 449 kts 275°
2026-05-04 22:22 52.06454 -31.87433 37416 ft 450 kts 275°
2026-05-04 22:22 52.06718 -31.97597 37411 ft 450 kts 275°
2026-05-04 22:23 52.06973 -32.07751 37407 ft 448 kts 276°
2026-05-04 22:23 52.07218 -32.17854 37401 ft 446 kts 276°
2026-05-04 22:24 52.07454 -32.27885 37405 ft 443 kts 276°
2026-05-04 22:24 52.07680 -32.37885 37406 ft 442 kts 276°
2026-05-04 22:25 52.07898 -32.47856 37404 ft 441 kts 275°
2026-05-04 22:25 52.08105 -32.57740 37403 ft 440 kts 275°
2026-05-04 22:26 52.08305 -32.67695 37400 ft 440 kts 276°
2026-05-04 22:26 52.08496 -32.77621 37394 ft 439 kts 276°
2026-05-04 22:27 52.08678 -32.87544 37400 ft 439 kts 276°
2026-05-04 22:27 52.08853 -32.97467 37398 ft 439 kts 276°
2026-05-04 22:28 52.09018 -33.07382 37395 ft 439 kts 276°
2026-05-04 22:28 52.09175 -33.17240 37394 ft 439 kts 276°
2026-05-04 22:29 52.09324 -33.27157 37379 ft 438 kts 276°
2026-05-04 22:29 52.09465 -33.37056 37389 ft 437 kts 276°
2026-05-04 22:30 52.09597 -33.46932 37382 ft 436 kts 276°
2026-05-04 22:30 52.09720 -33.56790 37392 ft 436 kts 276°
2026-05-04 22:31 52.09836 -33.66643 37379 ft 436 kts 276°
2026-05-04 22:31 52.09943 -33.76496 37374 ft 435 kts 276°
2026-05-04 22:32 52.10042 -33.86352 37360 ft 434 kts 276°
2026-05-04 22:32 52.10131 -33.96106 37369 ft 434 kts 276°
2026-05-04 22:33 52.10214 -34.05915 37379 ft 434 kts 276°
2026-05-04 22:33 52.10288 -34.15725 37378 ft 434 kts 276°
2026-05-04 22:34 52.10354 -34.25531 37369 ft 434 kts 276°
2026-05-04 22:34 52.10412 -34.35348 37373 ft 434 kts 275°
2026-05-04 22:35 52.10461 -34.45167 37343 ft 433 kts 275°
2026-05-04 22:35 52.10502 -34.54972 37359 ft 433 kts 275°
2026-05-04 22:36 52.10535 -34.64747 37367 ft 432 kts 275°
2026-05-04 22:36 52.10561 -34.74519 37361 ft 432 kts 275°
2026-05-04 22:37 52.10578 -34.84237 37359 ft 432 kts 275°
2026-05-04 22:37 52.10587 -34.94001 37362 ft 432 kts 275°
2026-05-04 22:38 52.10588 -35.03789 37322 ft 432 kts 274°
2026-05-04 22:38 52.10580 -35.13534 37351 ft 430 kts 274°
2026-05-04 22:39 52.10565 -35.23258 37345 ft 429 kts 274°
2026-05-04 22:39 52.10542 -35.32971 37347 ft 429 kts 274°
2026-05-04 22:40 52.10512 -35.42603 37347 ft 428 kts 274°
2026-05-04 22:40 52.10473 -35.52305 37346 ft 428 kts 274°
2026-05-04 22:41 52.10426 -35.61999 37346 ft 428 kts 274°
2026-05-04 22:41 52.10372 -35.71675 37326 ft 428 kts 273°
2026-05-04 22:42 52.10309 -35.81347 37337 ft 428 kts 273°
2026-05-04 22:42 52.10239 -35.91041 37334 ft 428 kts 273°
2026-05-04 22:43 52.10161 -36.00680 37331 ft 429 kts 273°
2026-05-04 22:43 52.10074 -36.10377 37327 ft 429 kts 273°
2026-05-04 22:44 52.09979 -36.20076 37331 ft 429 kts 273°
2026-05-04 22:44 52.09876 -36.29771 37321 ft 428 kts 272°
2026-05-04 22:45 52.09766 -36.39458 37321 ft 428 kts 272°
2026-05-04 22:45 52.09606 -36.52357 37317 ft 429 kts 272°
2026-05-04 22:46 52.09478 -36.62055 37312 ft 429 kts 271°
2026-05-04 22:46 52.09341 -36.71749 37312 ft 429 kts 271°
2026-05-04 22:47 52.09196 -36.81457 37309 ft 429 kts 271°
2026-05-04 22:47 52.09044 -36.91115 37292 ft 426 kts 270°
2026-05-04 22:48 52.08884 -37.00739 37302 ft 424 kts 270°
2026-05-04 22:48 52.08717 -37.10312 37298 ft 423 kts 270°
2026-05-04 22:49 52.08543 -37.19848 37301 ft 421 kts 270°
2026-05-04 22:49 52.08362 -37.29357 37301 ft 421 kts 269°
2026-05-04 22:50 52.08174 -37.38881 37296 ft 421 kts 269°
2026-05-04 22:50 52.07978 -37.48412 37289 ft 422 kts 269°
2026-05-04 22:51 52.07773 -37.57965 37282 ft 423 kts 269°
2026-05-04 22:51 52.07560 -37.67538 37281 ft 424 kts 269°
2026-05-04 22:52 52.07340 -37.77061 37281 ft 425 kts 269°
2026-05-04 22:52 52.07111 -37.86673 37270 ft 425 kts 269°
2026-05-04 22:53 52.06874 -37.96279 37272 ft 425 kts 269°
2026-05-04 22:53 52.06629 -38.05882 37250 ft 425 kts 268°
2026-05-04 22:54 52.06376 -38.15491 37263 ft 426 kts 267°
2026-05-04 22:54 52.06114 -38.25138 37258 ft 427 kts 267°
2026-05-04 22:55 52.05845 -38.34776 37255 ft 427 kts 267°
2026-05-04 22:55 52.05569 -38.44372 37248 ft 428 kts 267°
2026-05-04 22:56 52.05283 -38.54023 37231 ft 428 kts 267°
2026-05-04 22:56 52.04990 -38.63677 37227 ft 428 kts 266°
2026-05-04 22:57 52.04687 -38.73356 37229 ft 428 kts 266°
2026-05-04 22:57 52.04377 -38.83031 37215 ft 429 kts 266°
2026-05-04 22:58 52.04059 -38.92718 37216 ft 429 kts 266°
2026-05-04 22:58 52.03733 -39.02401 37206 ft 430 kts 266°
2026-05-04 22:59 52.03398 -39.12094 37210 ft 430 kts 266°
2026-05-04 22:59 52.03058 -39.21729 37190 ft 430 kts 265°
2026-05-04 23:00 52.02707 -39.31430 37192 ft 430 kts 265°
2026-05-04 23:00 52.02347 -39.41149 37206 ft 430 kts 264°
2026-05-04 23:01 52.01980 -39.50859 37186 ft 431 kts 264°
2026-05-04 23:01 52.01604 -39.60573 37183 ft 431 kts 264°
2026-05-04 23:02 52.01221 -39.70288 37185 ft 431 kts 264°
2026-05-04 23:02 52.00830 -39.79993 37189 ft 431 kts 264°
2026-05-04 23:03 52.00431 -39.89715 37179 ft 432 kts 263°
2026-05-04 23:03 52.00023 -39.99452 37162 ft 433 kts 263°
2026-05-04 23:04 51.99523 -40.09182 37163 ft 433 kts 262°
2026-05-04 23:04 51.98948 -40.18899 37143 ft 433 kts 262°
2026-05-04 23:05 51.98371 -40.28559 37142 ft 433 kts 262°
2026-05-04 23:05 51.97793 -40.38298 37145 ft 433 kts 262°
2026-05-04 23:06 51.97211 -40.48038 37128 ft 434 kts 261°
2026-05-04 23:06 51.96622 -40.57793 37129 ft 435 kts 261°
2026-05-04 23:07 51.96022 -40.67574 37114 ft 436 kts 261°
2026-05-04 23:07 51.95413 -40.77376 37118 ft 438 kts 260°
2026-05-04 23:08 51.94794 -40.87200 37094 ft 438 kts 260°
2026-05-04 23:08 51.94168 -40.97025 37098 ft 439 kts 260°
2026-05-04 23:09 51.93530 -41.06879 37089 ft 440 kts 259°
2026-05-04 23:09 51.92883 -41.16750 37080 ft 441 kts 259°
2026-05-04 23:10 51.92226 -41.26643 37074 ft 442 kts 259°
2026-05-04 23:10 51.91561 -41.36541 37064 ft 442 kts 259°
2026-05-04 23:11 51.90890 -41.46397 37062 ft 442 kts 259°
2026-05-04 23:11 51.90207 -41.56297 37077 ft 443 kts 258°
2026-05-04 23:12 51.89504 -41.66314 37056 ft 452 kts 258°
2026-05-04 23:12 51.88784 -41.76484 37045 ft 455 kts 258°
2026-05-04 23:13 51.88059 -41.86648 37028 ft 455 kts 258°
2026-05-04 23:13 51.87324 -41.96815 37017 ft 454 kts 258°
2026-05-04 23:14 51.86587 -42.06879 37003 ft 453 kts 257°
2026-05-04 23:14 51.85836 -42.16987 37015 ft 453 kts 257°
2026-05-04 23:15 51.85075 -42.27109 36987 ft 453 kts 257°
2026-05-04 23:15 51.84306 -42.37229 36984 ft 454 kts 257°
2026-05-04 23:16 51.83526 -42.47365 36978 ft 455 kts 256°
2026-05-04 23:16 51.82734 -42.57539 36975 ft 457 kts 256°
2026-05-04 23:17 51.81932 -42.67734 36963 ft 458 kts 256°
2026-05-04 23:17 51.81118 -42.77966 36954 ft 460 kts 255°
2026-05-04 23:18 51.80292 -42.88233 36961 ft 462 kts 255°
2026-05-04 23:18 51.79454 -42.98538 36945 ft 463 kts 255°
2026-05-04 23:19 51.78610 -43.08801 36940 ft 464 kts 255°
2026-05-04 23:19 51.77751 -43.19136 36929 ft 464 kts 255°
2026-05-04 23:20 51.76884 -43.29457 36929 ft 463 kts 255°
2026-05-04 23:20 51.76006 -43.39778 36912 ft 464 kts 255°
2026-05-04 23:21 51.75118 -43.50112 36919 ft 465 kts 255°
2026-05-04 23:21 51.74222 -43.60436 36920 ft 465 kts 255°
2026-05-04 23:22 51.73317 -43.70761 36898 ft 465 kts 255°
2026-05-04 23:22 51.72402 -43.81085 36894 ft 465 kts 255°
2026-05-04 23:23 51.71477 -43.91415 36899 ft 466 kts 254°
2026-05-04 23:23 51.70541 -44.01759 36894 ft 466 kts 254°
2026-05-04 23:24 51.69596 -44.12098 36885 ft 466 kts 254°
2026-05-04 23:24 51.68647 -44.22385 36889 ft 468 kts 254°
2026-05-04 23:25 51.67679 -44.32762 36889 ft 469 kts 254°
2026-05-04 23:25 51.66700 -44.43162 36932 ft 470 kts 254°
2026-05-04 23:26 51.65710 -44.53582 36879 ft 471 kts 254°
2026-05-04 23:26 51.64710 -44.64013 36874 ft 471 kts 253°
2026-05-04 23:27 51.63702 -44.74421 36868 ft 470 kts 253°
2026-05-04 23:27 51.62685 -44.84826 36860 ft 470 kts 253°
2026-05-04 23:28 51.61660 -44.95197 36860 ft 469 kts 253°
2026-05-04 23:28 51.60626 -45.05563 36873 ft 470 kts 253°
2026-05-04 23:29 51.59580 -45.15958 36860 ft 471 kts 253°
2026-05-04 23:29 51.58524 -45.26355 36846 ft 471 kts 253°
2026-05-04 23:30 51.57459 -45.36753 36848 ft 471 kts 253°
2026-05-04 23:30 51.56392 -45.47079 36837 ft 471 kts 252°
2026-05-04 23:31 51.55307 -45.57470 36871 ft 472 kts 252°
2026-05-04 23:31 51.54209 -45.67898 36840 ft 473 kts 252°
2026-05-04 23:32 51.53289 -45.76567 36824 ft 474 kts 252°
2026-05-04 23:32 51.52173 -45.86998 36828 ft 474 kts 252°
2026-05-04 23:33 51.51043 -45.97469 36826 ft 476 kts 252°
2026-05-04 23:33 51.49902 -46.07945 36813 ft 477 kts 252°
2026-05-04 23:34 51.48748 -46.18444 36818 ft 479 kts 252°
2026-05-04 23:34 51.47583 -46.28973 36813 ft 480 kts 252°
2026-05-04 23:35 51.46405 -46.39520 36790 ft 480 kts 252°
2026-05-04 23:35 51.45219 -46.50050 36795 ft 480 kts 252°
2026-05-04 23:36 51.44022 -46.60586 36784 ft 480 kts 252°
2026-05-04 23:36 51.42818 -46.71099 36799 ft 480 kts 252°
2026-05-04 23:37 51.41600 -46.81634 36769 ft 480 kts 252°
2026-05-04 23:37 51.40378 -46.92128 36765 ft 479 kts 252°
2026-05-04 23:38 51.39154 -47.02552 36755 ft 478 kts 252°
2026-05-04 23:38 51.37916 -47.13008 36747 ft 478 kts 252°
2026-05-04 23:39 51.36670 -47.23446 36774 ft 477 kts 252°
2026-05-04 23:39 51.35415 -47.33878 36745 ft 477 kts 252°
2026-05-04 23:40 51.34151 -47.44301 36721 ft 477 kts 252°
2026-05-04 23:40 51.32879 -47.54704 36719 ft 476 kts 252°
2026-05-04 23:41 51.31602 -47.65077 36718 ft 476 kts 252°
2026-05-04 23:41 51.30314 -47.75449 36710 ft 476 kts 252°
2026-05-04 23:42 51.29017 -47.85819 36714 ft 476 kts 252°
2026-05-04 23:42 51.27713 -47.96168 36702 ft 475 kts 252°
2026-05-04 23:43 51.26400 -48.06502 36696 ft 474 kts 252°
2026-05-04 23:43 51.25081 -48.16813 36693 ft 473 kts 252°
2026-05-04 23:44 51.23755 -48.27102 36692 ft 473 kts 252°
2026-05-04 23:44 51.22429 -48.37313 36695 ft 473 kts 252°
2026-05-04 23:45 51.21083 -48.47596 36677 ft 474 kts 252°
2026-05-04 23:45 51.19729 -48.57877 36675 ft 474 kts 252°
2026-05-04 23:46 51.18362 -48.68177 36667 ft 474 kts 252°
2026-05-04 23:46 51.16987 -48.78472 36648 ft 475 kts 252°
2026-05-04 23:47 51.15601 -48.88765 36651 ft 475 kts 252°
2026-05-04 23:47 51.14207 -48.99047 36651 ft 475 kts 252°
2026-05-04 23:48 51.12813 -49.09262 36626 ft 475 kts 251°
2026-05-04 23:48 51.11402 -49.19524 36626 ft 475 kts 251°
2026-05-04 23:49 51.09978 -49.29808 36630 ft 476 kts 251°
2026-05-04 23:49 51.08543 -49.40100 36616 ft 477 kts 251°
2026-05-04 23:50 51.07099 -49.50391 36608 ft 477 kts 252°
2026-05-04 23:50 51.05644 -49.60693 36603 ft 477 kts 252°
2026-05-04 23:51 51.04192 -49.70903 36592 ft 476 kts 252°
2026-05-04 23:51 51.02723 -49.81158 36580 ft 476 kts 251°
2026-05-04 23:52 51.01238 -49.91472 36570 ft 475 kts 251°
2026-05-04 23:52 50.99662 -50.01566 36583 ft 472 kts 247°
2026-05-04 23:53 50.98540 -50.06453 36695 ft 472 kts 244°
2026-05-04 23:53 50.97350 -50.11329 36924 ft 474 kts 244°
2026-05-04 23:53 50.96151 -50.16201 37235 ft 473 kts 244°
2026-05-04 23:53 50.94961 -50.21050 37580 ft 472 kts 244°
2026-05-04 23:54 50.92578 -50.30812 37544 ft 475 kts 244°
2026-05-04 23:54 50.90218 -50.40530 37539 ft 470 kts 244°
2026-05-04 23:55 50.87888 -50.50099 37517 ft 468 kts 244°
2026-05-04 23:56 50.84368 -50.64459 37511 ft 465 kts 244°
2026-05-04 23:56 50.82018 -50.73990 37519 ft 465 kts 244°
2026-05-04 23:57 50.79655 -50.83531 37502 ft 466 kts 244°
2026-05-04 23:57 50.77281 -50.93079 37510 ft 467 kts 244°
2026-05-04 23:58 50.74894 -51.02638 37487 ft 468 kts 244°
2026-05-04 23:58 50.72494 -51.12207 37514 ft 468 kts 245°
2026-05-04 23:59 50.70101 -51.21708 37486 ft 469 kts 243°
2026-05-04 23:59 50.67681 -51.31282 37483 ft 470 kts 243°
2026-05-05 00:00 50.65250 -51.40852 37461 ft 470 kts 243°
2026-05-05 00:00 50.62816 -51.50395 37464 ft 468 kts 244°
2026-05-05 00:01 50.60384 -51.59893 37456 ft 467 kts 244°
2026-05-05 00:01 50.57951 -51.69351 37434 ft 466 kts 244°
2026-05-05 00:02 50.55530 -51.78726 37432 ft 465 kts 244°
2026-05-05 00:02 50.53086 -51.88153 37425 ft 465 kts 244°
2026-05-05 00:03 50.50633 -51.97538 37427 ft 463 kts 242°
2026-05-05 00:03 50.47584 -52.06379 37440 ft 458 kts 234°
2026-05-05 00:04 50.44202 -52.14873 37446 ft 459 kts 234°
2026-05-05 00:04 50.40817 -52.23374 37434 ft 461 kts 235°
2026-05-05 00:05 50.37423 -52.31928 37422 ft 462 kts 235°
2026-05-05 00:05 50.34027 -52.40488 37410 ft 463 kts 235°
2026-05-05 00:06 50.30642 -52.49003 37409 ft 463 kts 235°
2026-05-05 00:06 50.27231 -52.57553 37403 ft 462 kts 235°
2026-05-05 00:07 50.23820 -52.66074 37404 ft 462 kts 236°
2026-05-05 00:07 50.20405 -52.74574 37408 ft 462 kts 236°
2026-05-05 00:08 50.16984 -52.83060 37398 ft 462 kts 236°
2026-05-05 00:08 50.13575 -52.91491 37397 ft 462 kts 236°
2026-05-05 00:09 50.10139 -52.99961 37414 ft 462 kts 236°
2026-05-05 00:09 50.06692 -53.08431 37404 ft 463 kts 236°
2026-05-05 00:10 50.03245 -53.16876 37405 ft 462 kts 236°
2026-05-05 00:10 49.99790 -53.25312 37404 ft 462 kts 236°
2026-05-05 00:11 49.96333 -53.33726 37407 ft 462 kts 236°
2026-05-05 00:11 49.92869 -53.42128 37396 ft 462 kts 236°
2026-05-05 00:12 49.89400 -53.50518 37400 ft 462 kts 236°
2026-05-05 00:12 49.85928 -53.58887 37404 ft 461 kts 236°
2026-05-05 00:13 49.82472 -53.67191 37416 ft 461 kts 236°
2026-05-05 00:13 49.78971 -53.75578 37409 ft 461 kts 236°
2026-05-05 00:14 49.75506 -53.83851 37408 ft 461 kts 236°
2026-05-05 00:14 49.72010 -53.92173 37407 ft 461 kts 235°
2026-05-05 00:15 49.68512 -54.00474 37402 ft 461 kts 235°
2026-05-05 00:15 49.65002 -54.08775 37404 ft 461 kts 236°
2026-05-05 00:16 49.61492 -54.17052 37395 ft 461 kts 235°
2026-05-05 00:16 49.57978 -54.25314 37398 ft 460 kts 235°
2026-05-05 00:17 49.54463 -54.33550 37395 ft 460 kts 235°
2026-05-05 00:17 49.50945 -54.41770 37400 ft 459 kts 235°
2026-05-05 00:18 49.47448 -54.49914 37395 ft 459 kts 235°
2026-05-05 00:18 49.43928 -54.58086 37395 ft 458 kts 235°
2026-05-05 00:19 49.40410 -54.66229 37371 ft 458 kts 235°
2026-05-05 00:19 49.36884 -54.74366 37376 ft 457 kts 235°
2026-05-05 00:20 49.33358 -54.82479 37385 ft 456 kts 235°
2026-05-05 00:20 49.30428 -54.89202 37381 ft 456 kts 235°
2026-05-05 00:21 49.26903 -54.97266 37390 ft 455 kts 235°
2026-05-05 00:21 49.23373 -55.05320 37402 ft 455 kts 235°
2026-05-05 00:22 49.19842 -55.13349 37409 ft 454 kts 235°
2026-05-05 00:22 49.16315 -55.21347 37414 ft 455 kts 235°
2026-05-05 00:23 49.12770 -55.29361 37392 ft 455 kts 235°
2026-05-05 00:23 49.09217 -55.37367 37419 ft 456 kts 235°
2026-05-05 00:24 49.05674 -55.45328 37427 ft 456 kts 235°
2026-05-05 00:24 49.02103 -55.53329 37416 ft 457 kts 235°
2026-05-05 00:25 48.98520 -55.61334 37417 ft 457 kts 235°
2026-05-05 00:25 48.94928 -55.69334 37422 ft 458 kts 235°
2026-05-05 00:26 48.91332 -55.77318 37432 ft 457 kts 235°
2026-05-05 00:26 48.87729 -55.85294 37412 ft 457 kts 235°
2026-05-05 00:27 48.84150 -55.93196 37430 ft 457 kts 235°
2026-05-05 00:27 48.80546 -56.01127 37427 ft 456 kts 235°
2026-05-05 00:28 48.76942 -56.09035 37434 ft 455 kts 235°
2026-05-05 00:28 48.73336 -56.16925 37425 ft 454 kts 235°
2026-05-05 00:29 48.69734 -56.24785 37422 ft 454 kts 235°
2026-05-05 00:29 48.66132 -56.32619 37424 ft 453 kts 235°
2026-05-05 00:30 48.62526 -56.40440 37417 ft 453 kts 235°
2026-05-05 00:30 48.58922 -56.48234 37427 ft 452 kts 235°
2026-05-05 00:31 48.55342 -56.55957 37453 ft 451 kts 234°
2026-05-05 00:31 48.51705 -56.63777 37433 ft 453 kts 234°
2026-05-05 00:32 48.48095 -56.71516 37425 ft 455 kts 234°
2026-05-05 00:32 48.44440 -56.79331 37444 ft 457 kts 234°
2026-05-05 00:33 48.40769 -56.87157 37447 ft 458 kts 234°
2026-05-05 00:33 48.37083 -56.94992 37476 ft 459 kts 234°
2026-05-05 00:34 48.33392 -57.02816 37472 ft 459 kts 234°
2026-05-05 00:34 48.29697 -57.10624 37494 ft 458 kts 234°
2026-05-05 00:35 48.26009 -57.18396 37524 ft 456 kts 234°
2026-05-05 00:35 48.22330 -57.26127 37540 ft 454 kts 234°
2026-05-05 00:36 48.18689 -57.33756 37558 ft 452 kts 234°
2026-05-05 00:36 48.15022 -57.41418 37546 ft 451 kts 234°
2026-05-05 00:37 48.11368 -57.49033 37546 ft 450 kts 234°
2026-05-05 00:37 48.07712 -57.56629 37557 ft 449 kts 234°
2026-05-05 00:38 48.04051 -57.64215 37555 ft 450 kts 234°
2026-05-05 00:38 48.00386 -57.71788 37589 ft 450 kts 234°
2026-05-05 00:39 47.96712 -57.79358 37603 ft 450 kts 234°
2026-05-05 00:39 47.93036 -57.86912 37599 ft 450 kts 234°
2026-05-05 00:40 47.89370 -57.94426 37612 ft 451 kts 234°
2026-05-05 00:40 47.85664 -58.01999 37604 ft 452 kts 234°
2026-05-05 00:41 47.81945 -58.09578 37621 ft 454 kts 234°
2026-05-05 00:41 47.78215 -58.17158 37625 ft 455 kts 234°
2026-05-05 00:42 47.74470 -58.24748 37626 ft 455 kts 234°
2026-05-05 00:42 47.70748 -58.32270 37644 ft 454 kts 234°
2026-05-05 00:43 47.66982 -58.39861 37630 ft 453 kts 234°
2026-05-05 00:43 47.63249 -58.47363 37628 ft 451 kts 234°
2026-05-05 00:44 47.59547 -58.54783 37640 ft 450 kts 234°
2026-05-05 00:44 47.55830 -58.62214 37637 ft 449 kts 234°
2026-05-05 00:45 47.52111 -58.69628 37637 ft 449 kts 233°
2026-05-05 00:45 47.48384 -58.77038 37654 ft 449 kts 233°
2026-05-05 00:46 47.44646 -58.84450 37665 ft 450 kts 233°
2026-05-05 00:46 47.40896 -58.91865 37660 ft 451 kts 233°
2026-05-05 00:47 47.37131 -58.99292 37661 ft 452 kts 233°
2026-05-05 00:47 47.33346 -59.06736 37662 ft 454 kts 233°
2026-05-05 00:48 47.29567 -59.14148 37675 ft 455 kts 233°
2026-05-05 00:48 47.25762 -59.21592 37657 ft 455 kts 233°
2026-05-05 00:49 47.21944 -59.29041 37678 ft 455 kts 233°
2026-05-05 00:49 47.18130 -59.36462 37669 ft 455 kts 233°
2026-05-05 00:50 47.14315 -59.43865 37676 ft 454 kts 233°
2026-05-05 00:50 47.10502 -59.51244 37675 ft 453 kts 233°
2026-05-05 00:51 47.06694 -59.58594 37681 ft 451 kts 233°
2026-05-05 00:51 47.02899 -59.65899 37675 ft 449 kts 233°
2026-05-05 00:52 46.99110 -59.73175 37684 ft 448 kts 233°
2026-05-05 00:52 46.95322 -59.80428 37692 ft 447 kts 233°
2026-05-05 00:53 46.91563 -59.87608 37690 ft 447 kts 233°
2026-05-05 00:53 46.87772 -59.94829 37690 ft 448 kts 233°
2026-05-05 00:54 46.83973 -60.02047 37687 ft 448 kts 233°
2026-05-05 00:54 46.80163 -60.09267 37672 ft 448 kts 233°
2026-05-05 00:55 46.76347 -60.16479 37687 ft 449 kts 233°
2026-05-05 00:55 46.72528 -60.23680 37679 ft 449 kts 233°
2026-05-05 00:56 46.68698 -60.30880 37674 ft 450 kts 233°
2026-05-05 00:56 46.64855 -60.38088 37673 ft 450 kts 233°
2026-05-05 00:57 46.61018 -60.45266 37662 ft 449 kts 233°
2026-05-05 00:57 46.57209 -60.52372 37665 ft 448 kts 233°
2026-05-05 00:58 46.53376 -60.59504 37657 ft 447 kts 233°
2026-05-05 00:58 46.49554 -60.66598 37673 ft 445 kts 233°
2026-05-05 00:59 46.45733 -60.73674 37676 ft 445 kts 233°
2026-05-05 00:59 46.41914 -60.80725 37691 ft 444 kts 233°
2026-05-05 01:00 46.38092 -60.87766 37702 ft 444 kts 233°
2026-05-05 01:00 46.34269 -60.94790 37691 ft 444 kts 233°
2026-05-05 01:01 46.30437 -61.01816 37708 ft 445 kts 233°
2026-05-05 01:01 46.26613 -61.08807 37719 ft 447 kts 233°
2026-05-05 01:02 46.22750 -61.15852 37716 ft 448 kts 233°
2026-05-05 01:02 46.18870 -61.22909 37721 ft 447 kts 233°
2026-05-05 01:02 46.16946 -61.26401 37585 ft 443 kts 233°
2026-05-05 01:03 46.15028 -61.29877 37122 ft 441 kts 233°
2026-05-05 01:03 46.13129 -61.33315 36690 ft 435 kts 233°
2026-05-05 01:03 46.11255 -61.36705 36215 ft 431 kts 233°
2026-05-05 01:03 46.09395 -61.40063 35759 ft 427 kts 233°
2026-05-05 01:04 46.07552 -61.43390 35289 ft 423 kts 233°
2026-05-05 01:04 46.03900 -61.49967 34319 ft 417 kts 234°
2026-05-05 01:04 46.02097 -61.53209 33876 ft 414 kts 234°
2026-05-05 01:05 46.00302 -61.56435 33317 ft 412 kts 234°
2026-05-05 01:05 45.98520 -61.59632 32782 ft 408 kts 234°
2026-05-05 01:05 45.96752 -61.62798 32284 ft 403 kts 234°
2026-05-05 01:05 45.95005 -61.65925 31821 ft 399 kts 234°
2026-05-05 01:06 45.93275 -61.69018 31358 ft 395 kts 234°
2026-05-05 01:06 45.91565 -61.72072 30910 ft 390 kts 234°
2026-05-05 01:06 45.89870 -61.75095 30427 ft 386 kts 234°
2026-05-05 01:06 45.88760 -61.77074 30153 ft 383 kts 235°
2026-05-05 01:07 45.87095 -61.80039 29653 ft 379 kts 235°
2026-05-05 01:07 45.85454 -61.82959 29137 ft 374 kts 235°
2026-05-05 01:07 45.83831 -61.85843 28660 ft 368 kts 235°
2026-05-05 01:07 45.82234 -61.88677 28215 ft 362 kts 235°
2026-05-05 01:08 45.80677 -61.91435 27725 ft 346 kts 235°
2026-05-05 01:08 45.79189 -61.94068 27318 ft 337 kts 235°
2026-05-05 01:08 45.77722 -61.96666 26881 ft 334 kts 235°
2026-05-05 01:08 45.76269 -61.99240 26461 ft 330 kts 235°
2026-05-05 01:09 45.74831 -62.01784 26015 ft 327 kts 236°
2026-05-05 01:09 45.73429 -62.04260 25626 ft 323 kts 236°
2026-05-05 01:09 45.72024 -62.06750 25212 ft 319 kts 237°
2026-05-05 01:09 45.70681 -62.09257 24789 ft 316 kts 238°
2026-05-05 01:10 45.69372 -62.11770 24380 ft 313 kts 238°
2026-05-05 01:10 45.68078 -62.14267 23973 ft 311 kts 238°
2026-05-05 01:10 45.66794 -62.16741 23572 ft 309 kts 238°
2026-05-05 01:10 45.65513 -62.19203 23146 ft 307 kts 238°
2026-05-05 01:11 45.64240 -62.21642 22674 ft 305 kts 238°
2026-05-05 01:11 45.62977 -62.24051 22259 ft 301 kts 238°
2026-05-05 01:11 45.61726 -62.26435 21840 ft 298 kts 238°
2026-05-05 01:11 45.60486 -62.28796 21430 ft 296 kts 238°
2026-05-05 01:12 45.59261 -62.31126 21035 ft 292 kts 238°
2026-05-05 01:12 45.58043 -62.33438 20620 ft 290 kts 238°
2026-05-05 01:12 45.56837 -62.35727 20228 ft 288 kts 238°
2026-05-05 01:12 45.55640 -62.37996 19838 ft 285 kts 238°
2026-05-05 01:13 45.54450 -62.40249 19441 ft 283 kts 238°
2026-05-05 01:13 45.53270 -62.42482 19054 ft 281 kts 238°
2026-05-05 01:13 45.52101 -62.44691 18793 ft 276 kts 238°
2026-05-05 01:13 45.50966 -62.46834 18431 ft 273 kts 238°
2026-05-05 01:14 45.49822 -62.48992 18059 ft 272 kts 239°
2026-05-05 01:14 45.48688 -62.51133 17658 ft 270 kts 238°
2026-05-05 01:14 45.47561 -62.53257 17262 ft 267 kts 238°
2026-05-05 01:14 45.46445 -62.55358 16880 ft 265 kts 238°
2026-05-05 01:15 45.45336 -62.57445 16500 ft 263 kts 238°
2026-05-05 01:15 45.44237 -62.59513 16131 ft 261 kts 239°
2026-05-05 01:15 45.43144 -62.61568 15767 ft 260 kts 239°
2026-05-05 01:15 45.42057 -62.63610 15393 ft 258 kts 239°
2026-05-05 01:16 45.40976 -62.65636 15032 ft 256 kts 239°
2026-05-05 01:16 45.39900 -62.67653 14689 ft 255 kts 239°
2026-05-05 01:16 45.38830 -62.69658 14317 ft 254 kts 239°
2026-05-05 01:16 45.37763 -62.71656 13960 ft 253 kts 239°
2026-05-05 01:17 45.36699 -62.73648 13612 ft 253 kts 239°
2026-05-05 01:17 45.35637 -62.75635 13219 ft 252 kts 239°
2026-05-05 01:17 45.34580 -62.77610 12854 ft 250 kts 239°
2026-05-05 01:17 45.33529 -62.79572 12492 ft 248 kts 239°
2026-05-05 01:18 45.32499 -62.81493 12151 ft 247 kts 239°
2026-05-05 01:18 45.31449 -62.83450 11812 ft 245 kts 238°
2026-05-05 01:18 45.30430 -62.85347 11455 ft 244 kts 239°
2026-05-05 01:18 45.29406 -62.87253 11132 ft 242 kts 239°
2026-05-05 01:19 45.28386 -62.89153 10777 ft 241 kts 239°
2026-05-05 01:19 45.27370 -62.91043 10452 ft 240 kts 238°
2026-05-05 01:19 45.26360 -62.92919 10133 ft 238 kts 238°
2026-05-05 01:19 45.25376 -62.94742 10044 ft 229 kts 239°
2026-05-05 01:20 45.24406 -62.96542 9713 ft 230 kts 239°
2026-05-05 01:20 45.23460 -62.98291 9330 ft 217 kts 239°
2026-05-05 01:20 45.22551 -62.99975 9063 ft 213 kts 239°
2026-05-05 01:20 45.21662 -63.01624 8822 ft 208 kts 239°
2026-05-05 01:21 45.20788 -63.03242 8505 ft 205 kts 239°
2026-05-05 01:21 45.19928 -63.04833 8215 ft 201 kts 239°
2026-05-05 01:21 45.19082 -63.06399 7942 ft 199 kts 239°
2026-05-05 01:21 45.18246 -63.07945 7669 ft 198 kts 239°
2026-05-05 01:22 45.17404 -63.09507 7416 ft 201 kts 239°
2026-05-05 01:22 45.16547 -63.11095 7124 ft 204 kts 239°
2026-05-05 01:22 45.15683 -63.12690 6852 ft 203 kts 239°
2026-05-05 01:22 45.14820 -63.14281 6575 ft 204 kts 239°
2026-05-05 01:23 45.13957 -63.15872 6308 ft 204 kts 239°
2026-05-05 01:23 45.13095 -63.17462 6034 ft 203 kts 239°
2026-05-05 01:23 45.12234 -63.19047 5749 ft 203 kts 239°
2026-05-05 01:23 45.11403 -63.20567 5443 ft 186 kts 239°
2026-05-05 01:24 45.10636 -63.21971 5222 ft 177 kts 239°
2026-05-05 01:24 45.09883 -63.23361 4992 ft 178 kts 239°
2026-05-05 01:24 45.09128 -63.24749 4737 ft 177 kts 240°
2026-05-05 01:24 45.08383 -63.26121 4543 ft 173 kts 239°
2026-05-05 01:25 45.07674 -63.27422 4443 ft 168 kts 240°
2026-05-05 01:25 45.06952 -63.28755 4390 ft 174 kts 240°
2026-05-05 01:25 45.06209 -63.30121 4341 ft 175 kts 239°
2026-05-05 01:25 45.05458 -63.31500 4239 ft 178 kts 239°
2026-05-05 01:26 45.04704 -63.32881 4133 ft 177 kts 239°
2026-05-05 01:26 45.03962 -63.34233 4048 ft 168 kts 239°
2026-05-05 01:26 45.03264 -63.35503 3874 ft 162 kts 239°
2026-05-05 01:26 45.02518 -63.36665 3696 ft 160 kts 232°
2026-05-05 01:27 45.01662 -63.37679 3485 ft 161 kts 229°
2026-05-05 01:27 45.00759 -63.38631 3247 ft 162 kts 226°
2026-05-05 01:27 44.99873 -63.39520 3103 ft 147 kts 227°
2026-05-05 01:27 44.99090 -63.40298 2924 ft 127 kts 229°
2026-05-05 01:28 44.98380 -63.41011 2815 ft 127 kts 228°
2026-05-05 01:28 44.97653 -63.41738 2609 ft 126 kts 228°
2026-05-05 01:28 44.96945 -63.42441 2446 ft 123 kts 228°
2026-05-05 01:28 44.96247 -63.43135 2261 ft 123 kts 228°
2026-05-05 01:29 44.95542 -63.43837 2114 ft 125 kts 227°
2026-05-05 01:29 44.94831 -63.44543 1948 ft 124 kts 226°
2026-05-05 01:29 44.94141 -63.45228 1763 ft 122 kts 225°
2026-05-05 01:29 44.93445 -63.45916 1602 ft 120 kts 224°
2026-05-05 01:30 44.92757 -63.46603 1434 ft 123 kts 224°
2026-05-05 01:30 44.92046 -63.47312 1274 ft 129 kts 220°
2026-05-05 01:30 44.91301 -63.48042 1090 ft 132 kts 219°
2026-05-05 01:30 44.90543 -63.48795 908 ft 134 kts 216°
2026-05-05 01:31 44.89789 -63.49555 729 ft 135 kts 214°
2026-05-05 01:31 44.89022 -63.50305 561 ft 134 kts 212°
2026-05-05 01:31 44.88268 -63.51042 460 ft 122 kts 216°
2026-05-05 01:31 44.87765 -63.51537 465 ft 48 kts 214°
2026-05-05 01:32 44.87542 -63.51754 464 ft 30 kts 218°
2026-05-05 01:32 44.87448 -63.51966 464 ft 15 kts 264°
2026-05-05 01:32 44.87464 -63.52089 465 ft 13 kts 298°
2026-05-05 01:32 44.87513 -63.52113 465 ft 8 kts 22°
2026-05-05 01:33 44.87555 -63.52078 463 ft 7 kts 33°
2026-05-05 01:33 44.87601 -63.52034 464 ft 8 kts 35°
2026-05-05 01:33 44.87651 -63.51983 464 ft 9 kts 35°
2026-05-05 01:33 44.87707 -63.51929 464 ft 10 kts 35°
2026-05-05 01:34 44.87766 -63.51871 464 ft 11 kts 35°
2026-05-05 01:34 44.87829 -63.51809 464 ft 11 kts 35°
2026-05-05 01:34 44.87895 -63.51743 464 ft 12 kts 35°
2026-05-05 01:34 44.87961 -63.51677 464 ft 12 kts 35°
2026-05-05 01:35 44.88031 -63.51607 464 ft 13 kts 35°
2026-05-05 01:35 44.88101 -63.51536 463 ft 11 kts 35°
2026-05-05 01:35 44.88162 -63.51476 463 ft 8 kts 34°
2026-05-05 01:35 44.88204 -63.51437 463 ft 7 kts 34°
2026-05-05 01:36 44.88245 -63.51398 461 ft 8 kts 34°
2026-05-05 01:36 44.88292 -63.51353 463 ft 9 kts 34°
2026-05-05 01:36 44.88338 -63.51319 463 ft 6 kts
2026-05-05 01:36 44.88367 -63.51352 463 ft 5 kts 311°
2026-05-05 01:37 44.88389 -63.51394 462 ft 4 kts 307°
2026-05-05 01:37 44.88393 -63.51401 462 ft 0 kts 307°